[Iaude] MPEC X41: 2023 XF [a=1.29,e=0.19,i=15.4,H=23.3]

mpec at marsden.cfa.harvard.edu mpec at marsden.cfa.harvard.edu
Mon Dec 4 16:59:51 EST 2023


M.P.E.C. 2023-X41                              Issued 2023 December 4, 21:58 UT

     The Minor Planet Electronic Circulars contain information on unusual
         minor planets, routine data on comets and natural satellites,
         and occasional editorial announcements.  They are published
    on behalf of Division F of the International Astronomical Union by the
          Minor Planet Center, Smithsonian Astrophysical Observatory,
                          Cambridge, MA 02138, U.S.A.
			  
             Prepared using the Tamkin Foundation Computer Network

                              MPC at CFA.HARVARD.EDU
            URL https://www.minorplanetcenter.net/    ISSN 1523-6714

                                    2023 XF                                     


Observations:
     K23X00F*1C2023 12 03.28535504 04 14.851+30 17 32.89         18.48GVEX041G96
     K23X00F 1C2023 12 03.29050704 04 15.614+30 16 30.90         18.27GVEX041G96
     K23X00F 1C2023 12 03.29565104 04 16.367+30 15 28.91         18.60GVEX041G96
     K23X00F 1C2023 12 03.30078804 04 17.108+30 14 27.17         18.33GVEX041G96
     K23X00F KC2023 12 03.40618604 04 32.984+29 53 10.50         18.77GVEX041I52
     K23X00F KC2023 12 03.40669704 04 33.064+29 53 04.16         18.70GVEX041I52
     K23X00F KC2023 12 03.40720704 04 33.143+29 52 57.83         18.77GVEX041I52
     K23X00F KC2023 12 03.40771904 04 33.233+29 52 51.64         18.70GVEX041I52
     K23X00F KC2023 12 03.70951804 05 29.56 +28 52 49.6          18.4 GVEX041900
     K23X00F KC2023 12 03.71665204 05 30.66 +28 51 23.6          18.5 GVEX041900
     K23X00F KC2023 12 03.72378704 05 31.76 +28 49 57.2          18.1 GVEX041900
     K23X00F KB2023 12 03.73659 04 05 44.09 +28 46 56.1          18.0 RZEX041106
     K23X00F KB2023 12 03.73967104 05 44.338+28 46 13.15         18.5 GXEX041K74
     K23X00F KB2023 12 03.74037 04 05 44.71 +28 46 12.3          18.4 RZEX041106
     K23X00F KB2023 12 03.74249904 05 44.818+28 45 40.28         18.0 GXEX041K74
     K23X00F KB2023 12 03.74436 04 05 45.40 +28 45 25.6          17.8 RZEX041106
     K23X00F KB2023 12 03.74519004 05 45.290+28 45 08.60         18.1 GXEX041K74
     K23X00F KB2023 12 03.74788104 05 45.761+28 44 37.61         18.4 GXEX041K74
     K23X00F KB2023 12 03.74865 04 05 46.11 +28 44 35.4          18.1 RZEX041106
     K23X00F KB2023 12 03.75057304 05 46.200+28 44 06.07         18.4 GXEX041K74
     K23X00F  C2023 12 04.19125 04 07 02.89 +27 18 07.9          18.7 VtEX041V27
     K23X00F  C2023 12 04.19488 04 07 03.29 +27 17 23.4          18.5 VtEX041V27
     K23X00F KC2023 12 04.19520204 07 03.46 +27 17 22.1          18.0 G EX041858
     K23X00F  C2023 12 04.20581 04 07 04.95 +27 15 17.5          17.7 VtEX041V27
     K23X00F KC2023 12 04.20779604 07 05.20 +27 14 55.3          18.6 G EX041858
     K23X00F KC2023 12 04.22031104 07 06.88 +27 12 29.8          18.7 G EX041858
     K23X00F 1C2023 12 04.29482204 07 17.400+26 58 03.76         18.81GVEX041703
     K23X00F 1C2023 12 04.29688604 07 17.684+26 57 38.88         18.41GVEX041703
     K23X00F 1C2023 12 04.29892404 07 17.908+26 57 15.66         18.36GVEX041703
     K23X00F 1C2023 12 04.30095904 07 18.246+26 56 51.04               VEX041703
     K23X00F  C2023 12 04.32591604 07 26.912+26 52 16.46         18.52wXEX041F52
     K23X00F  C2023 12 04.33632204 07 28.285+26 50 16.28         18.67wXEX041F52
     K23X00F  C2023 12 04.34666404 07 29.640+26 48 16.60         18.84wXEX041F52
     K23X00F  C2023 12 04.35703604 07 30.986+26 46 16.41         18.92wXEX041F52
     K23X00F KC2023 12 04.52652804 08 00.48 +26 12 56.9          18.5 GVEX041900
     K23X00F  B2023 12 04.53919 04 08 05.62 +26 10 26.9          19.3 GVEX041O46
     K23X00F  B2023 12 04.54376 04 08 06.27 +26 09 34.1          19.7 GVEX041O46
     K23X00F KC2023 12 04.54407504 08 02.84 +26 09 34.7          18.1 GVEX041900
     K23X00F  B2023 12 04.54835 04 08 06.86 +26 08 43.5          19.3 GVEX041O46
     K23X00F  C2023 12 04.58429704 08 01.282+26 01 51.61         18.62GVEX041F52
     K23X00F KC2023 12 04.70121 04 08 32.46 +25 38 36.4          18.8 VqEX041L04
     K23X00F KC2023 12 04.70302704 08 32.46 +25 38 16.3          18.8 GXEX041L18
     K23X00F KC2023 12 04.70449 04 08 33.02 +25 37 59.8          17.6 VqEX041L04
     K23X00F KC2023 12 04.70810 04 08 33.58 +25 37 18.9          16.6 VqEX041L04
     K23X00F KC2023 12 04.70997204 08 33.57 +25 36 55.9          18.3 GXEX041L18
     K23X00F KC2023 12 04.71333004 08 34.09 +25 36 18.7          18.3 GXEX041L18
     K23X00F KB2023 12 04.78637 04 08 45.18 +25 22 31.6          18.7 GXEX041M45
     K23X00F KB2023 12 04.78920 04 08 45.57 +25 21 59.4          18.1 GXEX041M45
     K23X00F KB2023 12 04.79192 04 08 45.96 +25 21 28.3          18.3 GXEX041M45
     K23X00F KC2023 12 04.81765 04 08 50.40 +25 16 42.4          19.1 VZEX041M63
     K23X00F KC2023 12 04.82288 04 08 51.12 +25 15 43.6          19.0 VZEX041M63
     K23X00F KC2023 12 04.82791 04 08 51.82 +25 14 46.5          19.0 VZEX041M63

Observer details:
106 Crni Vrh.  Observer H. Mikuz.  0.60-m f/3.3 reflector + CMO.
703 Catalina Sky Survey.  Observer G. J. Leonard.  Measurers E. C. Beshore, D.
    Fay, J. B. Fazekas, D. C. Fuls, A. R. Gibbs, A. D. Grauer, H. Groeller, J.
    K. Hogan, R. A. Kowalski, S. M. Larson, G. J. Leonard, D. Rankin, R. L.
    Seaman, F. C. Shelly, K. W. Wierzchos.  0.68-m Schmidt + 10K CCD.
858 Tebbutt Observatory, Edgewood.  Observer F. B. Zoltowski.  0.16-m f/7
    Refractor + CCD.
900 Moriyama.  Observer Y. Ikari.  0.26-m f/7.0 reflector + CCD.
F52 Pan-STARRS 2, Haleakala.  Observers J. Herman, T. Lowe, P. Minguez, A.
    Schultz, I. Smith.  Measurers K. Chambers, T. de Boer, J. Fairlamb, H.
    Gao, M. Huber, C.-C. Lin, E. Magnier, Y. Ramanjooloo, R. Wainscoat, R.
    Weryk.  1.8-m Ritchey-Chretien + CCD.
G96 Mt. Lemmon Survey.  Observer H. Groeller.  Measurers E. C. Beshore, D.
    Fay, J. B. Fazekas, D. C. Fuls, A. R. Gibbs, A. D. Grauer, H. Groeller, J.
    K. Hogan, R. A. Kowalski, S. M. Larson, G. J. Leonard, D. Rankin, R. L.
    Seaman, F. C. Shelly, K. W. Wierzchos.  1.5-m reflector + 10K CCD.
I52 Steward Observatory, Mt. Lemmon Station.  Observer R. A. Kowalski.
    Measurers E. C. Beshore, D. Fay, J. B. Fazekas, D. C. Fuls, A. R. Gibbs,
    A. D. Grauer, H. Groeller, J. K. Hogan, R. A. Kowalski, S. M. Larson, G.
    J. Leonard, D. Rankin, R. L. Seaman, F. C. Shelly, K. W. Wierzchos.  1.0-m
    prime focus + CCD.
K74 Muensterschwarzach Observatory, Schwarzach.  Observer C. Gerhard.  0.30-m
    f/3.75 reflector + CMO.
L04 ROASTERR-1 Observatory, Cluj-Napoca.  Observer L. Hudin.  0.3-m f/5
    reflector + CCD.
L18 QOS Observatory, Zalistsi.  Observers S. V. Rischenko, O. V. Kravchenko.
    Measurer A. M. Kozhukhov.  0.50-m f/3.8 reflector + CCD.
M45 Starhopper Observatory, Sfantu Gheorghe.  Observer F. Ursache.  0.41-m
    f/7.5 reflector + CMO.
M63 RPF Observatory, Gagliano del Capo.  Observer D. Licchelli.  0.30-m f/5.3
    reflector + CCD.
O46 Daocheng Glacier Observatory.  Observer Z. Wang.  0.25-m f/8 reflector +
    CMO.
V27 North Mesa Observatory, Los Alamos.  Observer B. K. Kendrick.  0.25-m f/6
    reflector + CCD.

Orbital elements:
2023 XF                                                  Earth MOID = 0.0813 AU
Epoch 2023 Sept. 13.0 TT = JDT 2460200.5                Bell                    
M 326.32864              (2000.0)            P               Q                  
n   0.67466560     Peri.  146.10626     +0.75994617     -0.59869996             
a   1.2874894      Node   252.72590     +0.52194504     +0.79412361             
e   0.1893756      Incl.   15.36785     +0.38736958     +0.10452774             
P   1.46           H   23.34          G   0.15           U   7                  
Residuals in seconds of arc
231203 G96  0.1-  0.1+    231203 106  0.0   0.1-    231204 O46  0.2+  1.1-
231203 G96  0.0   0.0     231203 K74  0.1-  0.1+    231204 900  0.4+  0.3-
231203 G96  0.1+  0.1-    231204 V27  0.2+  1.5+    231204 O46  0.8-  0.7+
231203 G96  0.1-  0.0     231204 V27  1.2-  0.9-    231204 F52  0.0   0.2+
231203 I52  0.0   0.1+    231204 858  0.2+  0.2+    231204 L04  0.5-  0.5-
231203 I52  0.0   0.0     231204 V27  0.7+  0.3+    231204 L18  0.4-  1.1+
231203 I52  0.0   0.2-    231204 858  0.2+  0.2-    231204 L04  0.1+  0.1+
231203 I52  0.1+  0.1-    231204 858  0.2-  0.1+    231204 L04  0.0   0.2+
231203 900  0.2-  0.1-    231204 703  0.0   0.0     231204 L18  0.0   0.4-
231203 900  0.0   0.0     231204 703  0.1+  0.6-    231204 L18  0.1-  0.5+
231203 900  0.0   0.3-    231204 703  0.5-  0.0     231204 M45  0.2+  0.1-
231203 106  0.2+  0.2-    231204 703  0.4+  0.7-    231204 M45  0.1+  0.1-
231203 K74  0.0   0.1-    231204 F52  0.0   0.1-    231204 M45  0.2+  0.3-
231203 106  0.1-  0.1+    231204 F52  0.0   0.0     231204 M63  0.1-  0.7-
231203 K74  0.1-  0.1+    231204 F52  0.0   0.0     231204 M63  0.0   0.0
231203 106  0.2+  0.0     231204 F52  0.0   0.1-    231204 M63  0.2+  0.1+
231203 K74  0.0   0.2-    231204 900  0.1+  0.2-
231203 K74  0.2+  0.2+    231204 O46  0.4+  0.3-

Ephemeris:
2023 XF                  a,e,i = 1.29, 0.19, 15                  q = 1.0437
Date    TT    R. A. (2000) Decl.     Delta      r    Elong.  Phase     V
2023 11 04    20 54 07.2 +78 35 31   0.1524  1.0438   105.8    66.1    21.7
...
2023 11 19    02 19 49.5 +71 44 50   0.1003  1.0511   126.4    49.2    20.3
...
2023 11 27    03 37 12.9 +51 25 12   0.08378 1.0595   148.9    28.7    19.3
...
2023 12 03    04 03 20.3 +31 15 01   0.08342 1.0677   168.4    10.7    18.8
2023 12 04    04 06 26.1 +27 56 03   0.08456 1.0693   170.7     8.6    18.7
2023 12 05    04 09 16.9 +24 42 36   0.08602 1.0708   171.9     7.5    18.7
...
2023 12 11    04 22 31.8 +08 13 53   0.1009  1.0810   161.5    16.8    19.4
...
2023 12 19    04 34 27.1 -05 30 35   0.1324  1.0967   146.4    29.8    20.4
...
2024 01 03    04 51 16.8 -15 53 25   0.2078  1.1314   131.4    40.7    21.8

M. P. C. Staff               (C) Copyright 2023 MPC           M.P.E.C. 2023-X41





More information about the Iaude mailing list